Weather History for KLWS - November, 2011

Change the Weather History Date:

Wednesday, November 23, 2011

  Actual Average Record
Temperature  
Mean Temperature 56 °F 39 °F  
Max Temperature 64 °F 45 °F 66 °F (1959)
Min Temperature 47 °F 32 °F -1 °F (1985)
Degree Days  
Heating Degree Days 9 26  
Month to date heating degree days 566 521  
Since 1 July heating degree days 956 1046  
Cooling Degree Days 0 0  
Month to date cooling degree days 0 0  
Year to date cooling degree days 742 807  
Growing Degree Days 6 (Base 50)    
Moisture  
Dew Point 32 °F    
Average Humidity 43    
Maximum Humidity 61    
Minimum Humidity 25    
Precipitation  
Precipitation 0.00 in 0.03 in 0.45 in (1961)
Month to date precipitation 0.91 0.92  
Year to date precipitation 12.82 11.08  
Snow  
Snow 0.00 in 0.10 in 2.80 in (1977)
Month to date snowfall 1.0 1.2  
Since 1 July snowfall 1.0 1.2  
Since 1 September snowfall 1.0 1.2  
Snow Depth 0.00 in    
Sea Level Pressure  
Sea Level Pressure 29.64 in    
Wind  
Wind Speed 7 mph (SW)    
Max Wind Speed 23 mph    
Max Gust Speed 31 mph    
Visibility 10 miles    
Events      
T = Trace of Precipitation, MM = Missing Value Source: NWS Daily Summary

Daily Weather History Graph

Daily Weather History Graph

Search for Another Location

Airport or City:

Trip Planner

Search our weather history database for the weather conditions in past years. The results will help you decide how hot, cold, wet, or windy it might be!

Date:

Astronomy

Nov. 23, 2011 Rise Set
Actual Time 7:00 AM PST 4:08 PM PST
Civil Twilight 6:26 AM PST 4:41 PM PST
Nautical Twilight 5:49 AM PST 5:18 PM PST
Astronomical Twilight 5:13 AM PST 5:54 PM PST
Moon 5:08 AM PST (11/23) 2:54 PM PST (11/23)
Length of Visible Light 10h 14m
Length of Day
9h 07m
Waning Crescent, 3% of the Moon is Illuminated
Nov 23
Waning Crescent
Nov 24
New
Dec 2
First Quarter
Dec 10
Full
Dec 17
Last Quarter

Hourly Weather History & Observations

Time (PST) Temp. Dew Point Humidity Pressure Visibility Wind Dir Wind Speed Gust Speed Precip Events Conditions
12:56 AM 53.1 °F 37.0 °F 55% 29.74 in 10.0 mi Calm Calm - N/A   Clear
1:56 AM 54.0 °F 36.0 °F 51% 29.72 in 10.0 mi Calm Calm - N/A   Partly Cloudy
2:56 AM 50.0 °F 37.0 °F 61% 29.70 in 10.0 mi South 5.8 mph - N/A   Clear
3:56 AM 48.0 °F 36.0 °F 63% 29.69 in 10.0 mi SE 5.8 mph - N/A   Clear
4:56 AM 53.1 °F 35.1 °F 50% 29.66 in 10.0 mi SSE 5.8 mph - N/A   Clear
5:56 AM 53.1 °F 33.1 °F 47% 29.68 in 10.0 mi Calm Calm - N/A   Overcast
6:56 AM 55.9 °F 30.9 °F 39% 29.66 in 10.0 mi SSE 6.9 mph - N/A   Partly Cloudy
7:56 AM 55.9 °F 30.9 °F 39% 29.65 in 10.0 mi SSE 9.2 mph - N/A   Scattered Clouds
8:56 AM 57.9 °F 28.9 °F 33% 29.66 in 10.0 mi SW 10.4 mph 16.1 mph N/A   Scattered Clouds
9:56 AM 61.0 °F 28.9 °F 30% 29.65 in 10.0 mi SSW 16.1 mph 20.7 mph N/A   Clear
10:56 AM 60.1 °F 33.1 °F 36% 29.63 in 10.0 mi SW 6.9 mph - N/A   Clear
11:56 AM 63.0 °F 28.9 °F 28% 29.61 in 10.0 mi SW 10.4 mph - N/A   Mostly Cloudy
12:56 PM 62.1 °F 30.0 °F 30% 29.60 in 10.0 mi SW 8.1 mph - N/A   Mostly Cloudy
1:56 PM 62.1 °F 27.0 °F 26% 29.59 in 10.0 mi SSW 12.7 mph - N/A   Scattered Clouds
2:56 PM 62.1 °F 26.1 °F 25% 29.57 in 10.0 mi South 4.6 mph - N/A   Overcast
3:56 PM 61.0 °F 26.1 °F 26% 29.57 in 10.0 mi SW 6.9 mph - N/A   Mostly Cloudy
4:56 PM 59.0 °F 27.0 °F 29% 29.57 in 10.0 mi WSW 5.8 mph - N/A   Overcast
5:56 PM 57.9 °F 27.0 °F 31% 29.57 in 10.0 mi SW 5.8 mph - N/A   Overcast
6:56 PM 57.9 °F 26.1 °F 30% 29.59 in 10.0 mi SW 8.1 mph 18.4 mph N/A   Mostly Cloudy
7:56 PM 55.0 °F 34.0 °F 45% 29.61 in 10.0 mi WNW 12.7 mph 19.6 mph N/A   Overcast
8:56 PM 53.1 °F 37.0 °F 55% 29.67 in 10.0 mi NNW 6.9 mph - N/A   Overcast
9:56 PM 52.0 °F 37.0 °F 57% 29.66 in 10.0 mi NW 9.2 mph - N/A   Mostly Cloudy
10:56 PM 50.0 °F 37.0 °F 61% 29.70 in 10.0 mi WNW 6.9 mph - N/A   Overcast
11:56 PM 46.9 °F 37.0 °F 68% 29.72 in 10.0 mi WNW 12.7 mph 20.7 mph N/A   Overcast